Time,TemperatureF,DewpointF,PressureIn,WindDirection,WindDirectionDegrees,WindSpeedMPH,WindSpeedGustMPH,Humidity,HourlyPrecipIn,Conditions,Clouds,dailyrainin,SoftwareType,DateUTC
2013-01-21 00:00:00,22.1,12.8,30.03,NNW,344,7.0,7.0,67,0.00,,,0.00,Wunderground v.1.15,2013-01-21 05:00:00,
2013-01-21 00:04:00,21.6,13.6,30.03,NNW,340,5.0,8.0,71,0.00,,,0.00,Wunderground v.1.15,2013-01-21 05:04:00,
2013-01-21 00:10:00,21.1,13.8,30.03,NNW,343,2.0,2.0,73,0.00,,,0.00,Wunderground v.1.15,2013-01-21 05:10:00,
2013-01-21 00:15:00,20.7,14.0,30.03,North,350,1.0,8.0,75,0.00,,,0.00,Wunderground v.1.15,2013-01-21 05:15:00,
2013-01-21 00:20:00,20.3,13.9,30.03,North,355,1.0,1.0,76,0.00,,,0.00,Wunderground v.1.15,2013-01-21 05:20:00,
2013-01-21 00:25:00,19.9,13.9,30.03,North,360,1.0,4.0,77,0.00,,,0.00,Wunderground v.1.15,2013-01-21 05:25:00,
2013-01-21 00:34:00,19.4,13.9,30.03,North,351,1.0,8.0,79,0.00,,,0.00,Wunderground v.1.15,2013-01-21 05:34:00,
2013-01-21 00:39:00,19.2,13.8,30.03,North,351,1.0,1.0,79,0.00,,,0.00,Wunderground v.1.15,2013-01-21 05:39:00,
2013-01-21 00:44:00,18.9,13.7,30.03,North,351,0.0,8.0,80,0.00,,,0.00,Wunderground v.1.15,2013-01-21 05:44:00,
2013-01-21 00:50:00,18.6,13.5,30.03,North,355,0.0,8.0,80,0.00,,,0.00,Wunderground v.1.15,2013-01-21 05:50:00,
2013-01-21 00:55:00,18.4,13.5,30.04,North,355,0.0,8.0,81,0.00,,,0.00,Wunderground v.1.15,2013-01-21 05:55:00,
2013-01-21 01:00:00,18.3,13.7,30.04,North,10,0.0,8.0,82,0.00,,,0.00,Wunderground v.1.15,2013-01-21 06:00:00,
2013-01-21 01:10:00,18.2,13.9,30.05,NNE,18,0.0,8.0,83,0.00,,,0.00,Wunderground v.1.15,2013-01-21 06:10:00,
2013-01-21 01:19:00,18.4,14.4,30.05,NNE,22,1.0,8.0,84,0.00,,,0.00,Wunderground v.1.15,2013-01-21 06:19:00,
2013-01-21 01:25:00,18.5,14.2,30.05,NE,41,1.0,8.0,83,0.00,,,0.00,Wunderground v.1.15,2013-01-21 06:25:00,
2013-01-21 01:34:00,18.6,14.3,30.05,NE,41,0.0,8.0,83,0.00,,,0.00,Wunderground v.1.15,2013-01-21 06:34:00,
2013-01-21 01:39:00,18.6,14.3,30.05,NE,41,0.0,8.0,83,0.00,,,0.00,Wunderground v.1.15,2013-01-21 06:39:00,
2013-01-21 01:44:00,18.6,14.3,30.05,NE,41,0.0,8.0,83,0.00,,,0.00,Wunderground v.1.15,2013-01-21 06:44:00,
2013-01-21 01:50:00,18.6,14.0,30.05,ENE,65,0.0,8.0,82,0.00,,,0.00,Wunderground v.1.15,2013-01-21 06:50:00,
2013-01-21 01:55:00,18.5,13.9,30.06,North,355,1.0,8.0,82,0.00,,,0.00,Wunderground v.1.15,2013-01-21 06:55:00,
2013-01-21 02:00:00,18.4,13.8,30.06,North,355,1.0,1.0,82,0.00,,,0.00,Wunderground v.1.15,2013-01-21 07:00:00,
2013-01-21 02:10:00,18.2,13.6,30.06,North,360,1.0,8.0,82,0.00,,,0.00,Wunderground v.1.15,2013-01-21 07:10:00,
2013-01-21 02:15:00,18.2,13.6,30.06,North,5,1.0,8.0,82,0.00,,,0.00,Wunderground v.1.15,2013-01-21 07:15:00,
2013-01-21 02:20:00,18.1,13.5,30.06,NNE,29,0.0,8.0,82,0.00,,,0.00,Wunderground v.1.15,2013-01-21 07:20:00,
2013-01-21 02:25:00,18.0,13.7,30.07,NNE,30,0.0,8.0,83,0.00,,,0.00,Wunderground v.1.15,2013-01-21 07:25:00,
2013-01-21 02:30:00,18.0,14.0,30.07,NNE,30,0.0,8.0,84,0.00,,,0.00,Wunderground v.1.15,2013-01-21 07:30:00,
2013-01-21 02:39:00,18.0,14.3,30.07,NNE,30,0.0,8.0,85,0.00,,,0.00,Wunderground v.1.15,2013-01-21 07:39:00,
2013-01-21 02:45:00,17.9,14.2,30.07,NNE,30,0.0,8.0,85,0.00,,,0.00,Wunderground v.1.15,2013-01-21 07:45:00,
2013-01-21 02:50:00,17.8,14.1,30.07,NNE,30,0.0,8.0,85,0.00,,,0.00,Wunderground v.1.15,2013-01-21 07:50:00,
2013-01-21 02:55:00,17.6,13.9,30.07,NNE,30,0.0,8.0,85,0.00,,,0.00,Wunderground v.1.15,2013-01-21 07:55:00,
2013-01-21 03:00:00,17.4,13.7,30.07,NNE,30,0.0,8.0,85,0.00,,,0.00,Wunderground v.1.15,2013-01-21 08:00:00,
2013-01-21 03:05:00,17.2,13.7,30.07,NNE,30,0.0,8.0,86,0.00,,,0.00,Wunderground v.1.15,2013-01-21 08:05:00,
2013-01-21 03:14:00,16.7,13.2,30.07,NNE,30,0.0,8.0,86,0.00,,,0.00,Wunderground v.1.15,2013-01-21 08:14:00,
2013-01-21 03:19:00,16.5,13.0,30.07,NNE,30,0.0,8.0,86,0.00,,,0.00,Wunderground v.1.15,2013-01-21 08:19:00,
2013-01-21 03:25:00,16.2,12.7,30.07,NNE,30,0.0,8.0,86,0.00,,,0.00,Wunderground v.1.15,2013-01-21 08:25:00,
2013-01-21 03:30:00,16.0,12.8,30.07,NNE,30,0.0,8.0,87,0.00,,,0.00,Wunderground v.1.15,2013-01-21 08:30:00,
2013-01-21 03:35:00,16.0,12.8,30.07,NNE,30,0.0,8.0,87,0.00,,,0.00,Wunderground v.1.15,2013-01-21 08:35:00,
2013-01-21 03:40:00,15.9,12.7,30.06,NNE,30,0.0,8.0,87,0.00,,,0.00,Wunderground v.1.15,2013-01-21 08:40:00,
2013-01-21 03:45:00,15.8,12.6,30.07,North,351,0.0,8.0,87,0.00,,,0.00,Wunderground v.1.15,2013-01-21 08:45:00,
2013-01-21 03:54:00,15.9,12.7,30.07,North,351,0.0,8.0,87,0.00,,,0.00,Wunderground v.1.15,2013-01-21 08:54:00,
2013-01-21 03:59:00,16.1,12.7,30.07,North,351,0.0,8.0,86,0.00,,,0.00,Wunderground v.1.15,2013-01-21 08:59:00,
2013-01-21 04:04:00,16.1,12.4,30.08,North,351,0.0,8.0,85,0.00,,,0.00,Wunderground v.1.15,2013-01-21 09:04:00,
2013-01-21 04:10:00,16.3,12.6,30.08,North,351,0.0,8.0,85,0.00,,,0.00,Wunderground v.1.15,2013-01-21 09:10:00,
2013-01-21 04:19:00,16.6,12.6,30.08,North,351,0.0,0.0,84,0.00,,,0.00,Wunderground v.1.15,2013-01-21 09:19:00,
2013-01-21 04:24:00,16.7,12.4,30.08,North,351,0.0,0.0,83,0.00,,,0.00,Wunderground v.1.15,2013-01-21 09:24:00,
2013-01-21 04:30:00,16.7,12.4,30.08,North,351,0.0,0.0,83,0.00,,,0.00,Wunderground v.1.15,2013-01-21 09:30:00,
2013-01-21 04:35:00,16.8,12.5,30.08,North,351,0.0,0.0,83,0.00,,,0.00,Wunderground v.1.15,2013-01-21 09:35:00,
2013-01-21 04:40:00,16.9,12.6,30.08,North,351,0.0,0.0,83,0.00,,,0.00,Wunderground v.1.15,2013-01-21 09:40:00,
2013-01-21 04:45:00,17.0,12.7,30.08,North,351,0.0,0.0,83,0.00,,,0.00,Wunderground v.1.15,2013-01-21 09:45:00,
2013-01-21 04:50:00,17.0,12.7,30.08,North,351,0.0,0.0,83,0.00,,,0.00,Wunderground v.1.15,2013-01-21 09:50:00,
2013-01-21 04:59:00,17.1,12.8,30.08,North,351,0.0,0.0,83,0.00,,,0.00,Wunderground v.1.15,2013-01-21 09:59:00,
2013-01-21 05:04:00,17.1,12.8,30.08,North,351,0.0,4.0,83,0.00,,,0.00,Wunderground v.1.15,2013-01-21 10:04:00,
2013-01-21 05:10:00,17.1,12.8,30.08,North,351,0.0,4.0,83,0.00,,,0.00,Wunderground v.1.15,2013-01-21 10:10:00,
2013-01-21 05:15:00,17.1,12.8,30.08,North,351,0.0,4.0,83,0.00,,,0.00,Wunderground v.1.15,2013-01-21 10:15:00,
2013-01-21 05:20:00,17.1,12.8,30.08,North,351,0.0,4.0,83,0.00,,,0.00,Wunderground v.1.15,2013-01-21 10:20:00,
2013-01-21 05:25:00,17.0,12.5,30.08,North,351,0.0,4.0,82,0.00,,,0.00,Wunderground v.1.15,2013-01-21 10:25:00,
2013-01-21 05:30:00,16.8,12.3,30.08,North,351,0.0,4.0,82,0.00,,,0.00,Wunderground v.1.15,2013-01-21 10:30:00,
2013-01-21 05:39:00,16.4,11.9,30.08,North,351,0.0,4.0,82,0.00,,,0.00,Wunderground v.1.15,2013-01-21 10:39:00,
2013-01-21 05:45:00,16.2,11.9,30.08,North,351,0.0,4.0,83,0.00,,,0.00,Wunderground v.1.15,2013-01-21 10:45:00,
2013-01-21 05:49:00,15.9,11.7,30.08,North,351,0.0,4.0,83,0.00,,,0.00,Wunderground v.1.15,2013-01-21 10:49:00,
2013-01-21 05:55:00,15.8,11.6,30.08,North,351,0.0,4.0,83,0.00,,,0.00,Wunderground v.1.15,2013-01-21 10:55:00,
2013-01-21 06:00:00,15.5,11.5,30.07,North,351,0.0,4.0,84,0.00,,,0.00,Wunderground v.1.15,2013-01-21 11:00:00,
2013-01-21 06:05:00,15.3,11.3,30.07,North,351,0.0,4.0,84,0.00,,,0.00,Wunderground v.1.15,2013-01-21 11:05:00,
2013-01-21 06:14:00,14.9,10.9,30.07,North,351,0.0,4.0,84,0.00,,,0.00,Wunderground v.1.15,2013-01-21 11:14:00,
2013-01-21 06:19:00,14.5,10.8,30.07,North,351,0.0,4.0,85,0.00,,,0.00,Wunderground v.1.15,2013-01-21 11:19:00,
2013-01-21 06:24:00,14.4,11.0,30.06,North,351,0.0,4.0,86,0.00,,,0.00,Wunderground v.1.15,2013-01-21 11:24:00,
2013-01-21 06:30:00,14.2,10.8,30.07,North,351,0.0,4.0,86,0.00,,,0.00,Wunderground v.1.15,2013-01-21 11:30:00,
2013-01-21 06:35:00,14.1,10.9,30.07,North,351,0.0,4.0,87,0.00,,,0.00,Wunderground v.1.15,2013-01-21 11:35:00,
2013-01-21 06:40:00,14.0,10.8,30.07,North,351,0.0,4.0,87,0.00,,,0.00,Wunderground v.1.15,2013-01-21 11:40:00,
2013-01-21 06:45:00,13.9,10.7,30.07,North,351,0.0,4.0,87,0.00,,,0.00,Wunderground v.1.15,2013-01-21 11:45:00,
2013-01-21 06:54:00,13.6,10.5,30.07,North,351,0.0,4.0,87,0.00,,,0.00,Wunderground v.1.15,2013-01-21 11:54:00,
2013-01-21 06:59:00,13.4,10.3,30.07,North,351,0.0,4.0,87,0.00,,,0.00,Wunderground v.1.15,2013-01-21 11:59:00,
2013-01-21 07:04:00,13.3,10.4,30.07,North,351,0.0,4.0,88,0.00,,,0.00,Wunderground v.1.15,2013-01-21 12:04:00,
2013-01-21 07:10:00,13.3,10.7,30.07,North,351,0.0,4.0,89,0.00,,,0.00,Wunderground v.1.15,2013-01-21 12:10:00,
2013-01-21 07:15:00,13.3,10.7,30.07,North,351,0.0,4.0,89,0.00,,,0.00,Wunderground v.1.15,2013-01-21 12:15:00,
2013-01-21 07:20:00,13.4,11.0,30.07,North,351,0.0,4.0,90,0.00,,,0.00,Wunderground v.1.15,2013-01-21 12:20:00,
2013-01-21 07:29:00,13.5,10.9,30.06,North,351,0.0,4.0,89,0.00,,,0.00,Wunderground v.1.15,2013-01-21 12:29:00,
2013-01-21 07:34:00,13.7,11.3,30.06,North,351,0.0,4.0,90,0.00,,,0.00,Wunderground v.1.15,2013-01-21 12:34:00,
2013-01-21 07:40:00,13.9,11.3,30.07,North,351,0.0,4.0,89,0.00,,,0.00,Wunderground v.1.15,2013-01-21 12:40:00,
2013-01-21 07:45:00,14.1,11.7,30.07,North,351,0.0,4.0,90,0.00,,,0.00,Wunderground v.1.15,2013-01-21 12:45:00,
2013-01-21 07:50:00,14.3,11.9,30.07,North,351,0.0,4.0,90,0.00,,,0.00,Wunderground v.1.15,2013-01-21 12:50:00,
2013-01-21 07:55:00,14.6,12.2,30.08,North,351,0.0,4.0,90,0.00,,,0.00,Wunderground v.1.15,2013-01-21 12:55:00,
2013-01-21 08:04:00,15.1,12.4,30.08,North,351,0.0,4.0,89,0.00,,,0.00,Wunderground v.1.15,2013-01-21 13:04:00,
2013-01-21 08:09:00,15.4,12.5,30.08,North,351,0.0,4.0,88,0.00,,,0.00,Wunderground v.1.15,2013-01-21 13:09:00,
2013-01-21 08:14:00,15.7,12.8,30.07,North,351,0.0,4.0,88,0.00,,,0.00,Wunderground v.1.15,2013-01-21 13:14:00,
2013-01-21 08:20:00,15.9,13.0,30.08,North,351,0.0,4.0,88,0.00,,,0.00,Wunderground v.1.15,2013-01-21 13:20:00,
2013-01-21 08:25:00,16.2,13.0,30.08,North,351,0.0,4.0,87,0.00,,,0.00,Wunderground v.1.15,2013-01-21 13:25:00,
2013-01-21 08:30:00,16.5,13.0,30.08,North,351,0.0,4.0,86,0.00,,,0.00,Wunderground v.1.15,2013-01-21 13:30:00,
2013-01-21 08:39:00,17.0,13.0,30.08,North,351,0.0,4.0,84,0.00,,,0.00,Wunderground v.1.15,2013-01-21 13:39:00,
2013-01-21 08:44:00,17.3,12.7,30.08,North,351,0.0,4.0,82,0.00,,,0.00,Wunderground v.1.15,2013-01-21 13:44:00,
2013-01-21 08:49:00,17.6,12.8,30.08,North,351,0.0,4.0,81,0.00,,,0.00,Wunderground v.1.15,2013-01-21 13:49:00,
2013-01-21 08:55:00,18.0,11.7,30.08,North,351,0.0,4.0,76,0.00,,,0.00,Wunderground v.1.15,2013-01-21 13:55:00,
2013-01-21 09:00:00,18.3,11.4,30.08,North,351,0.0,4.0,74,0.00,,,0.00,Wunderground v.1.15,2013-01-21 14:00:00,
2013-01-21 09:05:00,18.8,11.9,30.08,North,350,0.0,4.0,74,0.00,,,0.00,Wunderground v.1.15,2013-01-21 14:05:00,
2013-01-21 09:14:00,19.3,11.7,30.08,North,350,0.0,4.0,72,0.00,,,0.00,Wunderground v.1.15,2013-01-21 14:14:00,
2013-01-21 09:19:00,19.6,11.4,30.07,North,350,0.0,4.0,70,0.00,,,0.00,Wunderground v.1.15,2013-01-21 14:19:00,
2013-01-21 09:24:00,19.9,10.7,30.08,ESE,121,0.0,4.0,67,0.00,,,0.00,Wunderground v.1.15,2013-01-21 14:24:00,
2013-01-21 09:30:00,20.1,9.9,30.07,SW,231,1.0,4.0,64,0.00,,,0.00,Wunderground v.1.15,2013-01-21 14:30:00,
2013-01-21 09:35:00,20.3,10.4,30.08,WNW,282,1.0,4.0,65,0.00,,,0.00,Wunderground v.1.15,2013-01-21 14:35:00,
2013-01-21 09:40:00,20.4,9.8,30.07,WNW,298,1.0,1.0,63,0.00,,,0.00,Wunderground v.1.15,2013-01-21 14:40:00,
2013-01-21 09:45:00,20.8,9.8,30.07,WSW,253,1.0,4.0,62,0.00,,,0.00,Wunderground v.1.15,2013-01-21 14:45:00,
2013-01-21 09:54:00,21.1,9.4,30.07,WSW,255,2.0,4.0,60,0.00,,,0.00,Wunderground v.1.15,2013-01-21 14:54:00,
2013-01-21 09:59:00,21.3,9.2,30.08,SW,223,2.0,4.0,59,0.00,,,0.00,Wunderground v.1.15,2013-01-21 14:59:00,
2013-01-21 10:04:00,21.5,8.6,30.08,WSW,246,2.0,4.0,57,0.00,,,0.00,Wunderground v.1.15,2013-01-21 15:04:00,
2013-01-21 10:10:00,21.6,9.1,30.08,SSW,196,2.0,2.0,58,0.00,,,0.00,Wunderground v.1.15,2013-01-21 15:10:00,
2013-01-21 10:15:00,21.7,8.8,30.07,WSW,251,2.0,4.0,57,0.00,,,0.00,Wunderground v.1.15,2013-01-21 15:15:00,
2013-01-21 10:20:00,22.0,9.1,30.07,West,268,2.0,4.0,57,0.00,,,0.00,Wunderground v.1.15,2013-01-21 15:20:00,
2013-01-21 10:25:00,22.2,9.3,30.07,SW,219,2.0,4.0,57,0.00,,,0.00,Wunderground v.1.15,2013-01-21 15:25:00,
2013-01-21 10:30:00,22.3,8.6,30.07,WSW,249,2.0,2.0,55,0.00,,,0.00,Wunderground v.1.15,2013-01-21 15:30:00,
2013-01-21 10:39:00,22.5,9.9,30.07,SSE,155,1.0,4.0,58,0.00,,,0.00,Wunderground v.1.15,2013-01-21 15:39:00,
2013-01-21 10:44:00,22.9,9.1,30.06,SSE,162,1.0,4.0,55,0.00,,,0.00,Wunderground v.1.15,2013-01-21 15:44:00,
2013-01-21 10:50:00,23.2,11.0,30.06,SSE,162,1.0,1.0,59,0.00,,,0.00,Wunderground v.1.15,2013-01-21 15:50:00,
2013-01-21 10:55:00,23.7,12.9,30.05,South,170,1.0,4.0,63,0.00,,,0.00,Wunderground v.1.15,2013-01-21 15:55:00,
2013-01-21 11:00:00,23.6,12.5,30.05,SSE,163,1.0,4.0,62,0.00,,,0.00,Wunderground v.1.15,2013-01-21 16:00:00,
2013-01-21 11:05:00,23.8,13.0,30.05,South,171,1.0,4.0,63,0.00,,,0.00,Wunderground v.1.15,2013-01-21 16:05:00,
2013-01-21 11:10:00,23.6,12.5,30.05,ENE,63,2.0,2.0,62,0.00,,,0.00,Wunderground v.1.15,2013-01-21 16:10:00,
2013-01-21 11:19:00,24.2,12.3,30.04,SSE,155,1.0,4.0,60,0.00,,,0.00,Wunderground v.1.15,2013-01-21 16:19:00,
2013-01-21 11:25:00,24.0,11.3,30.04,South,171,1.0,4.0,58,0.00,,,0.00,Wunderground v.1.15,2013-01-21 16:25:00,
2013-01-21 11:30:00,24.2,11.9,30.03,SSE,157,1.0,4.0,59,0.00,,,0.00,Wunderground v.1.15,2013-01-21 16:30:00,
2013-01-21 11:35:00,24.1,11.8,30.03,ENE,63,2.0,4.0,59,0.00,,,0.00,Wunderground v.1.15,2013-01-21 16:35:00,
2013-01-21 11:40:00,24.0,11.7,30.02,East,90,3.0,3.0,59,0.00,,,0.00,Wunderground v.1.15,2013-01-21 16:40:00,
2013-01-21 11:45:00,24.2,12.3,30.02,South,180,3.0,6.0,60,0.00,,,0.00,Wunderground v.1.15,2013-01-21 16:45:00,
2013-01-21 11:54:00,23.8,11.9,30.02,SSE,165,3.0,4.0,60,0.00,,,0.00,Wunderground v.1.15,2013-01-21 16:54:00,
2013-01-21 11:59:00,23.5,10.9,30.01,SW,223,3.0,3.0,58,0.00,,,0.00,Wunderground v.1.15,2013-01-21 16:59:00,
2013-01-21 12:05:00,23.3,10.7,30.01,South,178,4.0,7.0,58,0.00,,,0.00,Wunderground v.1.15,2013-01-21 17:05:00,
2013-01-21 12:10:00,23.3,11.4,30.01,South,175,4.0,4.0,60,0.00,,,0.00,Wunderground v.1.15,2013-01-21 17:10:00,
2013-01-21 12:15:00,23.3,11.8,30.00,SSE,167,3.0,4.0,61,0.00,,,0.00,Wunderground v.1.15,2013-01-21 17:15:00,
2013-01-21 12:20:00,23.2,11.4,30.00,SSE,163,3.0,4.0,60,0.00,,,0.00,Wunderground v.1.15,2013-01-21 17:20:00,
2013-01-21 12:25:00,23.1,12.0,30.00,South,175,4.0,4.0,62,0.00,,,0.00,Wunderground v.1.15,2013-01-21 17:25:00,
2013-01-21 12:34:00,23.0,13.0,29.99,ESE,123,4.0,5.0,65,0.00,,,0.00,Wunderground v.1.15,2013-01-21 17:34:00,
2013-01-21 12:39:00,23.1,13.1,29.99,South,176,3.0,6.0,65,0.00,,,0.00,Wunderground v.1.15,2013-01-21 17:39:00,
2013-01-21 12:44:00,23.3,13.6,29.99,ESE,102,2.0,6.0,66,0.00,,,0.00,Wunderground v.1.15,2013-01-21 17:44:00,
2013-01-21 12:50:00,23.4,13.7,29.99,SSE,159,3.0,3.0,66,0.00,,,0.00,Wunderground v.1.15,2013-01-21 17:50:00,
2013-01-21 12:55:00,23.4,13.7,29.98,SSW,195,4.0,4.0,66,0.00,,,0.00,Wunderground v.1.15,2013-01-21 17:55:00,
2013-01-21 13:00:00,23.3,13.6,29.98,South,178,3.0,6.0,66,0.00,,,0.00,Wunderground v.1.15,2013-01-21 18:00:00,
2013-01-21 13:10:00,23.0,13.0,29.98,SSE,157,4.0,4.0,65,0.00,,,0.00,Wunderground v.1.15,2013-01-21 18:10:00,
2013-01-21 13:15:00,23.3,13.6,29.98,SE,146,2.0,4.0,66,0.00,,,0.00,Wunderground v.1.15,2013-01-21 18:15:00,
2013-01-21 13:20:00,23.4,13.7,29.98,SSE,158,1.0,1.0,66,0.00,,,0.00,Wunderground v.1.15,2013-01-21 18:20:00,
2013-01-21 13:25:00,23.6,12.8,29.97,South,174,1.0,1.0,63,0.00,,,0.00,Wunderground v.1.15,2013-01-21 18:25:00,
2013-01-21 13:30:00,23.6,12.8,29.97,SSE,150,2.0,2.0,63,0.00,,,0.00,Wunderground v.1.15,2013-01-21 18:30:00,
2013-01-21 13:39:00,23.7,13.3,29.96,East,94,3.0,3.0,64,0.00,,,0.00,Wunderground v.1.15,2013-01-21 18:39:00,
2013-01-21 13:44:00,23.9,13.1,29.97,SSE,159,3.0,3.0,63,0.00,,,0.00,Wunderground v.1.15,2013-01-21 18:44:00,
2013-01-21 13:50:00,23.9,13.1,29.96,SSE,165,3.0,3.0,63,0.00,,,0.00,Wunderground v.1.15,2013-01-21 18:50:00,
2013-01-21 13:55:00,23.7,13.3,29.96,South,173,4.0,4.0,64,0.00,,,0.00,Wunderground v.1.15,2013-01-21 18:55:00,
2013-01-21 14:00:00,23.7,13.6,29.96,South,182,3.0,5.0,65,0.00,,,0.00,Wunderground v.1.15,2013-01-21 19:00:00,
2013-01-21 14:05:00,23.6,13.9,29.96,South,175,3.0,6.0,66,0.00,,,0.00,Wunderground v.1.15,2013-01-21 19:05:00,
2013-01-21 14:14:00,23.3,13.6,29.96,South,175,4.0,10.0,66,0.00,,,0.00,Wunderground v.1.15,2013-01-21 19:14:00,
2013-01-21 14:20:00,23.1,13.8,29.95,South,174,3.0,3.0,67,0.00,,,0.00,Wunderground v.1.15,2013-01-21 19:20:00,
2013-01-21 14:25:00,23.1,14.1,29.95,SSE,155,3.0,10.0,68,0.00,,,0.00,Wunderground v.1.15,2013-01-21 19:25:00,
2013-01-21 14:30:00,23.1,14.1,29.94,SSE,165,2.0,10.0,68,0.00,,,0.00,Wunderground v.1.15,2013-01-21 19:30:00,
2013-01-21 14:35:00,23.0,14.0,29.94,South,169,3.0,10.0,68,0.00,,,0.00,Wunderground v.1.15,2013-01-21 19:35:00,
2013-01-21 14:40:00,23.0,14.3,29.94,SE,143,3.0,3.0,69,0.00,,,0.00,Wunderground v.1.15,2013-01-21 19:40:00,
2013-01-21 14:49:00,23.1,14.1,29.94,South,170,2.0,2.0,68,0.00,,,0.00,Wunderground v.1.15,2013-01-21 19:49:00,
2013-01-21 14:54:00,23.2,14.5,29.94,SSE,154,2.0,10.0,69,0.00,,,0.00,Wunderground v.1.15,2013-01-21 19:54:00,
2013-01-21 15:00:00,23.3,14.3,29.94,South,173,2.0,2.0,68,0.00,,,0.00,Wunderground v.1.15,2013-01-21 20:00:00,
2013-01-21 15:05:00,23.4,14.7,29.95,SSE,167,1.0,10.0,69,0.00,,,0.00,Wunderground v.1.15,2013-01-21 20:05:00,
2013-01-21 15:10:00,23.2,15.2,29.95,SSE,167,2.0,2.0,71,0.00,,,0.00,Wunderground v.1.15,2013-01-21 20:10:00,
2013-01-21 15:15:00,23.1,15.4,29.95,South,175,3.0,3.0,72,0.00,,,0.00,Wunderground v.1.15,2013-01-21 20:15:00,
2013-01-21 15:20:00,23.1,15.7,29.94,SSE,154,2.0,2.0,73,0.00,,,0.00,Wunderground v.1.15,2013-01-21 20:20:00,
2013-01-21 15:29:00,23.1,14.8,29.94,SSE,150,1.0,1.0,70,0.00,,,0.00,Wunderground v.1.15,2013-01-21 20:29:00,
2013-01-21 15:34:00,23.1,15.1,29.94,SE,137,1.0,10.0,71,0.00,,,0.00,Wunderground v.1.15,2013-01-21 20:34:00,
2013-01-21 15:39:00,23.2,15.2,29.94,SSE,165,1.0,10.0,71,0.00,,,0.00,Wunderground v.1.15,2013-01-21 20:39:00,
2013-01-21 15:45:00,23.0,15.3,29.93,SSE,163,2.0,10.0,72,0.00,,,0.00,Wunderground v.1.15,2013-01-21 20:45:00,
2013-01-21 15:50:00,23.0,15.3,29.93,SSE,162,1.0,1.0,72,0.00,,,0.00,Wunderground v.1.15,2013-01-21 20:50:00,
2013-01-21 15:55:00,23.0,15.0,29.92,SSE,161,1.0,10.0,71,0.00,,,0.00,Wunderground v.1.15,2013-01-21 20:55:00,
2013-01-21 16:04:00,23.0,15.0,29.92,SSE,155,2.0,2.0,71,0.00,,,0.00,Wunderground v.1.15,2013-01-21 21:04:00,
2013-01-21 16:10:00,23.0,15.3,29.92,SSE,158,1.0,1.0,72,0.00,,,0.00,Wunderground v.1.15,2013-01-21 21:10:00,
2013-01-21 16:15:00,23.0,15.6,29.92,South,175,1.0,2.0,73,0.00,,,0.00,Wunderground v.1.15,2013-01-21 21:15:00,
2013-01-21 16:20:00,22.9,15.8,29.91,SSE,165,1.0,10.0,74,0.00,,,0.00,Wunderground v.1.15,2013-01-21 21:20:00,
2013-01-21 16:25:00,22.8,15.8,29.91,SSE,168,1.0,10.0,74,0.00,,,0.00,Wunderground v.1.15,2013-01-21 21:25:00,
2013-01-21 16:35:00,22.5,15.8,29.91,SSE,151,2.0,4.0,75,0.00,,,0.00,Wunderground v.1.15,2013-01-21 21:35:00,
2013-01-21 16:40:00,22.5,17.8,29.91,South,175,2.0,2.0,82,0.00,,,0.00,Wunderground v.1.15,2013-01-21 21:40:00,
2013-01-21 16:45:00,22.5,15.8,29.90,South,180,2.0,4.0,75,0.00,,,0.00,Wunderground v.1.15,2013-01-21 21:45:00,
2013-01-21 16:50:00,22.4,16.0,29.90,SSE,166,1.0,2.0,76,0.00,,,0.00,Wunderground v.1.15,2013-01-21 21:50:00,
2013-01-21 16:55:00,22.4,16.0,29.91,South,178,1.0,2.0,76,0.00,,,0.00,Wunderground v.1.15,2013-01-21 21:55:00,
2013-01-21 17:04:00,22.4,16.0,29.90,South,182,2.0,7.0,76,0.00,,,0.00,Wunderground v.1.15,2013-01-21 22:04:00,
2013-01-21 17:10:00,22.4,16.0,29.91,South,181,1.0,7.0,76,0.00,,,0.00,Wunderground v.1.15,2013-01-21 22:10:00,
2013-01-21 17:15:00,22.5,16.1,29.90,SSE,163,2.0,7.0,76,0.00,,,0.00,Wunderground v.1.15,2013-01-21 22:15:00,
2013-01-21 17:20:00,22.5,16.1,29.91,South,174,3.0,3.0,76,0.00,,,0.00,Wunderground v.1.15,2013-01-21 22:20:00,
2013-01-21 17:25:00,22.5,16.1,29.91,SE,135,2.0,7.0,76,0.00,,,0.00,Wunderground v.1.15,2013-01-21 22:25:00,
2013-01-21 17:30:00,22.5,16.1,29.90,SSE,167,2.0,7.0,76,0.00,,,0.00,Wunderground v.1.15,2013-01-21 22:30:00,
2013-01-21 17:39:00,22.6,16.2,29.91,South,173,2.0,2.0,76,0.00,,,0.00,Wunderground v.1.15,2013-01-21 22:39:00,
2013-01-21 17:44:00,22.6,16.2,29.91,South,172,3.0,3.0,76,0.00,,,0.00,Wunderground v.1.15,2013-01-21 22:44:00,
2013-01-21 17:50:00,22.6,16.5,29.91,South,171,2.0,7.0,77,0.00,,,0.00,Wunderground v.1.15,2013-01-21 22:50:00,
2013-01-21 17:55:00,22.6,16.5,29.91,SSE,167,1.0,7.0,77,0.00,,,0.00,Wunderground v.1.15,2013-01-21 22:55:00,
2013-01-21 18:00:00,22.6,16.5,29.91,SSE,165,1.0,7.0,77,0.00,,,0.00,Wunderground v.1.15,2013-01-21 23:00:00,
2013-01-21 18:05:00,22.6,16.5,29.91,SE,137,1.0,7.0,77,0.00,,,0.00,Wunderground v.1.15,2013-01-21 23:05:00,
2013-01-21 18:10:00,22.6,16.2,29.90,SSE,147,1.0,7.0,76,0.00,,,0.00,Wunderground v.1.15,2013-01-21 23:10:00,
2013-01-21 18:19:00,22.6,16.5,29.91,SSE,163,2.0,2.0,77,0.00,,,0.00,Wunderground v.1.15,2013-01-21 23:19:00,
2013-01-21 18:25:00,22.5,16.7,29.91,SE,130,2.0,7.0,78,0.00,,,0.00,Wunderground v.1.15,2013-01-21 23:25:00,
2013-01-21 18:30:00,22.5,16.7,29.91,SSE,154,1.0,1.0,78,0.00,,,0.00,Wunderground v.1.15,2013-01-21 23:30:00,
2013-01-21 18:35:00,22.5,16.7,29.91,SSE,154,1.0,7.0,78,0.00,,,0.00,Wunderground v.1.15,2013-01-21 23:35:00,
2013-01-21 18:40:00,22.5,16.7,29.91,South,175,1.0,7.0,78,0.00,,,0.00,Wunderground v.1.15,2013-01-21 23:40:00,
2013-01-21 18:49:00,22.4,16.9,29.91,South,175,0.0,7.0,79,0.00,,,0.00,Wunderground v.1.15,2013-01-21 23:49:00,
2013-01-21 18:54:00,22.3,16.8,29.91,SE,125,1.0,7.0,79,0.00,,,0.00,Wunderground v.1.15,2013-01-21 23:54:00,
2013-01-21 19:00:00,22.2,17.0,29.91,SE,125,0.0,7.0,80,0.00,,,0.00,Wunderground v.1.15,2013-01-22 00:00:00,
2013-01-21 19:05:00,22.2,17.0,29.91,SE,125,0.0,7.0,80,0.00,,,0.00,Wunderground v.1.15,2013-01-22 00:05:00,
2013-01-21 19:10:00,22.1,16.9,29.91,SE,141,0.0,7.0,80,0.00,,,0.00,Wunderground v.1.15,2013-01-22 00:10:00,
2013-01-21 19:15:00,22.1,17.2,29.91,SE,141,0.0,7.0,81,0.00,,,0.00,Wunderground v.1.15,2013-01-22 00:15:00,
2013-01-21 19:20:00,22.1,17.2,29.91,SE,141,0.0,7.0,81,0.00,,,0.00,Wunderground v.1.15,2013-01-22 00:20:00,
2013-01-21 19:29:00,21.9,17.0,29.91,ESE,103,0.0,7.0,81,0.00,,,0.00,Wunderground v.1.15,2013-01-22 00:29:00,
2013-01-21 19:35:00,21.7,16.8,29.91,ESE,103,0.0,7.0,81,0.00,,,0.00,Wunderground v.1.15,2013-01-22 00:35:00,
2013-01-21 19:40:00,21.6,16.4,29.91,ESE,103,0.0,7.0,80,0.00,,,0.00,Wunderground v.1.15,2013-01-22 00:40:00,
2013-01-21 19:45:00,21.4,16.5,29.90,ESE,103,0.0,7.0,81,0.00,,,0.00,Wunderground v.1.15,2013-01-22 00:45:00,
2013-01-21 19:50:00,21.2,16.3,29.90,ESE,103,0.0,7.0,81,0.00,,,0.00,Wunderground v.1.15,2013-01-22 00:50:00,
2013-01-21 19:55:00,20.9,16.0,29.90,ESE,103,0.0,7.0,81,0.00,,,0.00,Wunderground v.1.15,2013-01-22 00:55:00,
2013-01-21 20:04:00,20.3,15.7,29.90,ESE,103,0.0,7.0,82,0.00,,,0.00,Wunderground v.1.15,2013-01-22 01:04:00,
2013-01-21 20:09:00,20.0,15.4,29.90,ESE,103,0.0,7.0,82,0.00,,,0.00,Wunderground v.1.15,2013-01-22 01:09:00,
2013-01-21 20:15:00,19.7,15.4,29.90,ESE,103,0.0,7.0,83,0.00,,,0.00,Wunderground v.1.15,2013-01-22 01:15:00,
2013-01-21 20:20:00,19.3,15.0,29.89,ESE,103,0.0,7.0,83,0.00,,,0.00,Wunderground v.1.15,2013-01-22 01:20:00,
2013-01-21 20:25:00,18.8,14.8,29.89,ESE,103,0.0,7.0,84,0.00,,,0.00,Wunderground v.1.15,2013-01-22 01:25:00,
2013-01-21 20:30:00,18.4,14.4,29.89,ESE,103,0.0,7.0,84,0.00,,,0.00,Wunderground v.1.15,2013-01-22 01:30:00,
2013-01-21 20:35:00,18.1,14.4,29.89,ESE,103,0.0,7.0,85,0.00,,,0.00,Wunderground v.1.15,2013-01-22 01:35:00,
2013-01-21 20:44:00,17.9,14.7,29.89,ESE,103,0.0,7.0,87,0.00,,,0.00,Wunderground v.1.15,2013-01-22 01:44:00,
2013-01-21 20:50:00,17.8,14.6,29.89,ESE,103,0.0,7.0,87,0.00,,,0.00,Wunderground v.1.15,2013-01-22 01:50:00,
2013-01-21 21:00:00,17.3,13.8,29.88,ESE,103,0.0,7.0,86,0.00,,,0.00,Wunderground v.1.15,2013-01-22 02:00:00,
2013-01-21 21:05:00,17.0,13.8,29.88,ESE,103,0.0,7.0,87,0.00,,,0.00,Wunderground v.1.15,2013-01-22 02:05:00,
2013-01-21 21:10:00,16.8,13.9,29.87,ESE,103,0.0,7.0,88,0.00,,,0.00,Wunderground v.1.15,2013-01-22 02:10:00,
2013-01-21 21:19:00,16.6,13.7,29.87,ESE,103,0.0,7.0,88,0.00,,,0.00,Wunderground v.1.15,2013-01-22 02:19:00,
2013-01-21 21:24:00,16.4,13.5,29.87,ESE,103,0.0,7.0,88,0.00,,,0.00,Wunderground v.1.15,2013-01-22 02:24:00,
2013-01-21 21:29:00,16.1,13.2,29.86,ESE,103,0.0,7.0,88,0.00,,,0.00,Wunderground v.1.15,2013-01-22 02:29:00,
2013-01-21 21:35:00,15.8,12.9,29.86,ESE,103,0.0,7.0,88,0.00,,,0.00,Wunderground v.1.15,2013-01-22 02:35:00,
2013-01-21 21:40:00,15.6,12.7,29.86,ESE,103,0.0,7.0,88,0.00,,,0.00,Wunderground v.1.15,2013-01-22 02:40:00,
2013-01-21 21:45:00,15.4,12.5,29.86,ESE,103,0.0,7.0,88,0.00,,,0.00,Wunderground v.1.15,2013-01-22 02:45:00,
2013-01-21 21:50:00,15.1,12.2,29.85,ESE,103,0.0,7.0,88,0.00,,,0.00,Wunderground v.1.15,2013-01-22 02:50:00,
2013-01-21 21:59:00,14.7,12.3,29.85,ESE,103,0.0,7.0,90,0.00,,,0.00,Wunderground v.1.15,2013-01-22 02:59:00,
2013-01-21 22:04:00,14.5,12.1,29.85,ESE,103,0.0,7.0,90,0.00,,,0.00,Wunderground v.1.15,2013-01-22 03:04:00,
2013-01-21 22:09:00,14.2,11.8,29.84,ESE,103,0.0,7.0,90,0.00,,,0.00,Wunderground v.1.15,2013-01-22 03:09:00,
2013-01-21 22:15:00,14.1,11.7,29.84,ESE,103,0.0,7.0,90,0.00,,,0.00,Wunderground v.1.15,2013-01-22 03:15:00,
2013-01-21 22:20:00,14.0,11.6,29.84,ESE,103,0.0,7.0,90,0.00,,,0.00,Wunderground v.1.15,2013-01-22 03:20:00,
2013-01-21 22:25:00,14.0,11.9,29.84,East,100,0.0,7.0,91,0.00,,,0.00,Wunderground v.1.15,2013-01-22 03:25:00,
2013-01-21 22:34:00,15.0,13.3,29.84,NNW,342,1.0,7.0,93,0.00,,,0.00,Wunderground v.1.15,2013-01-22 03:34:00,
2013-01-21 22:39:00,16.0,14.6,29.84,North,5,2.0,7.0,94,0.00,,,0.00,Wunderground v.1.15,2013-01-22 03:39:00,
2013-01-21 22:44:00,16.8,15.1,29.84,NNW,347,3.0,7.0,93,0.00,,,0.00,Wunderground v.1.15,2013-01-22 03:44:00,
2013-01-21 22:50:00,17.5,15.6,29.85,North,5,3.0,7.0,92,0.00,,,0.00,Wunderground v.1.15,2013-01-22 03:50:00,
2013-01-21 22:55:00,17.9,15.7,29.85,NW,317,3.0,7.0,91,0.00,,,0.00,Wunderground v.1.15,2013-01-22 03:55:00,
2013-01-21 23:00:00,18.1,15.7,29.85,NW,317,1.0,1.0,90,0.00,,,0.00,Wunderground v.1.15,2013-01-22 04:00:00,
2013-01-21 23:05:00,18.3,15.9,29.85,NW,317,0.0,7.0,90,0.00,,,0.00,Wunderground v.1.15,2013-01-22 04:05:00,
2013-01-21 23:14:00,18.6,16.2,29.85,NW,309,1.0,7.0,90,0.00,,,0.00,Wunderground v.1.15,2013-01-22 04:14:00,
2013-01-21 23:19:00,18.6,15.9,29.85,WNW,300,2.0,2.0,89,0.00,,,0.00,Wunderground v.1.15,2013-01-22 04:19:00,
2013-01-21 23:24:00,18.7,15.7,29.85,NNW,334,3.0,4.0,88,0.00,,,0.00,Wunderground v.1.15,2013-01-22 04:24:00,
2013-01-21 23:30:00,18.7,15.5,29.85,WNW,286,4.0,7.0,87,0.00,,,0.00,Wunderground v.1.15,2013-01-22 04:30:00,
2013-01-21 23:35:00,18.7,14.9,29.85,WNW,284,3.0,7.0,85,0.00,,,0.00,Wunderground v.1.15,2013-01-22 04:35:00,
2013-01-21 23:40:00,18.6,14.3,29.85,NW,304,4.0,7.0,83,0.00,,,0.00,Wunderground v.1.15,2013-01-22 04:40:00,
2013-01-21 23:45:00,18.5,14.2,29.85,WNW,290,4.0,7.0,83,0.00,,,0.00,Wunderground v.1.15,2013-01-22 04:45:00,
2013-01-21 23:50:00,18.3,13.7,29.85,NW,318,3.0,3.0,82,0.00,,,0.00,Wunderground v.1.15,2013-01-22 04:50:00,
2013-01-21 23:59:00,18.0,12.9,29.85,WNW,291,2.0,2.0,80,0.00,,,0.00,Wunderground v.1.15,2013-01-22 04:59:00,